GW2366 Weather Reports


Display with metric or nautical units.
time (UTC)temp
F
wind
direction
speed
MPH
gust
MPH
rain 1hr
in
rain 24hr
in
rain mn
in
humidity
%
barometer
mb
20260504050525 51 253 1.0 2.0 0.00 0.00 0.00 95 1014.1
20260504050022 51 281 1.0 1.0 0.00 0.00 0.00 95 1014.0
20260504045519 51 296 0.0 0.0 0.00 0.00 0.00 95 1014.1
20260504045014 51 290 0.0 1.0 0.00 0.00 0.00 95 1014.0
20260504044512 50 289 1.0 1.0 0.00 0.00 0.00 96 1013.9
20260504044009 50 268 1.0 1.0 0.00 0.00 0.00 96 1013.6
20260504043506 50 295 0.0 0.0 0.00 0.00 0.00 96 1013.8
20260504043004 50 252 1.0 1.0 0.00 0.00 0.00 96 1013.8
20260504042500 50 304 1.0 1.0 0.00 0.00 0.00 96 1013.7
20260504041957 50 251 1.0 1.0 0.00 0.00 0.00 96 1013.5
20260504041453 50 255 1.0 1.0 0.00 0.00 0.00 97 1013.5
20260504040949 50 299 0.0 0.0 0.00 0.00 0.00 97 1013.6
20260504040447 49 295 0.0 0.0 0.00 0.00 0.00 97 1013.5
20260504035943 49 273 0.0 0.0 0.00 0.00 0.00 97 1013.5
20260504035440 50 265 0.0 1.0 0.00 0.00 0.00 97 1013.6
20260504034936 49 277 1.0 1.0 0.00 0.00 0.00 97 1013.4
20260504034434 49 294 0.0 0.0 0.00 0.00 0.00 96 1013.4
20260504033931 49 294 0.0 0.0 0.00 0.00 0.00 96 1013.5
20260504033429 49 294 0.0 0.0 0.00 0.00 0.00 95 1013.4
20260504032925 50 294 0.0 0.0 0.00 0.00 0.00 95 1013.2
20260504032422 50 294 0.0 0.0 0.00 0.00 0.00 95 1013.1
20260504031919 50 288 0.0 0.0 0.00 0.00 0.00 94 1013.2
20260504031417 51 260 1.0 1.0 0.00 0.00 0.00 94 1013.1
20260504030913 51 291 0.0 0.0 0.00 0.00 0.00 94 1013.1
20260504030410 51 290 0.0 0.0 0.00 0.00 0.00 93 1013.1
20260504025901 51 315 0.0 0.0 0.00 0.00 0.00 92 1013.1
20260504025358 52 264 0.0 1.0 0.00 0.00 0.00 92 1013.0
20260504024855 52 278 0.0 1.0 0.00 0.00 0.00 92 1012.9
20260504024351 52 280 0.0 0.0 0.00 0.00 0.00 92 1013.0
20260504023849 52 289 0.0 0.0 0.00 0.00 0.00 91 1012.9
20260504023345 53 285 0.0 0.0 0.00 0.00 0.00 90 1012.9
20260504022840 53 300 0.0 0.0 0.00 0.00 0.00 90 1012.8
20260504022337 53 277 2.0 2.0 0.00 0.00 0.00 89 1012.7
20260504021834 53 251 3.0 7.0 0.00 0.00 0.00 89 1012.9
20260504021331 54 291 1.0 1.0 0.00 0.00 0.00 89 1012.8
20260504020828 54 306 0.0 0.0 0.00 0.00 0.00 88 1012.9
20260504020325 55 262 3.0 3.0 0.00 0.00 0.00 87 1013.0
20260504015821 55 316 1.0 1.0 0.00 0.00 0.00 86 1013.0
20260504015317 56 254 2.0 2.0 0.00 0.00 0.00 85 1012.9
20260504014814 56 279 1.0 1.0 0.00 0.00 0.00 86 1012.9
20260504014310 56 257 3.0 3.0 0.00 0.00 0.00 85 1012.7
20260504013808 56 290 1.0 1.0 0.00 0.00 0.00 84 1012.8
20260504013305 56 300 1.0 1.0 0.00 0.00 0.00 82 1012.6
20260504012802 56 274 2.0 5.0 0.00 0.00 0.00 82 1012.6
20260504012300 57 266 5.0 8.0 0.00 0.00 0.00 81 1012.6
20260504011756 57 303 1.0 2.0 0.00 0.00 0.00 82 1012.6
20260504011253 57 290 3.0 3.0 0.00 0.00 0.00 80 1012.6
20260504010749 57 192 3.0 5.0 0.00 0.00 0.00 81 1012.8
20260504010244 57 313 1.0 1.0 0.00 0.00 0.00 82 1012.9
20260504005742 57 271 3.0 3.0 0.00 0.00 0.00 82 1012.8
20260504005239 57 246 2.0 3.0 0.00 0.00 0.00 81 1012.7
20260504004736 57 280 3.0 5.0 0.00 0.00 0.00 82 1012.9
20260504004233 57 132 3.0 5.0 0.00 0.00 0.00 81 1012.9
20260504003730 57 250 2.0 5.0 0.00 0.00 0.00 83 1012.9
20260504003227 57 251 3.0 3.0 0.00 0.00 0.00 82 1012.8
20260504002723 57 258 1.0 2.0 0.00 0.00 0.00 81 1013.0
20260504002220 58 274 1.0 2.0 0.00 0.00 0.00 81 1013.1
20260504001718 58 248 3.0 3.0 0.00 0.00 0.00 80 1012.9
20260504001215 60 202 2.0 2.0 0.00 0.00 0.00 78 1012.9
20260504000712 60 260 3.0 5.0 0.00 0.00 0.00 78 1012.7
20260504000208 60 280 4.0 6.0 0.00 0.00 0.00 76 1012.6
20260503235707 59 306 2.0 2.0 0.00 0.00 0.00 78 1012.7
20260503235204 60 274 2.0 2.0 0.00 0.00 0.00 78 1012.6
20260503234701 61 261 3.0 3.0 0.00 0.00 0.00 75 1012.8
20260503234159 62 176 2.0 3.0 0.00 0.00 0.00 73 1012.5
20260503233656 60 237 5.0 7.0 0.00 0.00 0.00 74 1012.6
20260503233151 59 250 3.0 3.0 0.00 0.00 0.00 76 1012.5
20260503232648 59 218 3.0 3.0 0.00 0.00 0.00 73 1012.6
20260503232146 60 216 3.0 5.0 0.00 0.00 0.00 74 1012.6
20260503231644 61 227 3.0 3.0 0.00 0.00 0.00 74 1012.6
20260503231140 60 282 2.0 2.0 0.00 0.00 0.00 73 1012.6
20260503230637 62 273 1.0 1.0 0.00 0.00 0.00 72 1012.7
20260503230134 63 302 1.0 2.0 0.00 0.00 0.00 70 1012.4
20260503225632 60 242 1.0 2.0 0.00 0.00 0.00 74 1012.3
20260503225131 61 353 1.0 2.0 0.00 0.00 0.00 72 1012.5
20260503224629 60 263 4.0 5.0 0.00 0.00 0.00 73 1012.5
20260503224127 59 251 2.0 5.0 0.00 0.00 0.00 75 1012.4
20260503223625 61 317 1.0 1.0 0.00 0.00 0.00 74 1012.4
20260503223120 60 289 1.0 2.0 0.00 0.00 0.00 74 1012.4
20260503222618 60 285 3.0 3.0 0.00 0.00 0.00 74 1012.4
20260503222115 60 278 1.0 2.0 0.00 0.00 0.00 72 1012.5
20260503221614 60 279 3.0 3.0 0.00 0.00 0.00 74 1012.5
20260503221111 60 313 0.0 0.0 0.00 0.00 0.00 75 1012.5
20260503220608 60 302 0.0 1.0 0.00 0.00 0.00 75 1012.4
20260503220104 59 294 1.0 1.0 0.00 0.00 0.00 76 1012.7
20260503215601 59 273 2.0 2.0 0.00 0.00 0.00 77 1012.6
20260503215058 59 257 4.0 7.0 0.00 0.00 0.00 74 1012.6
20260503214556 60 298 2.0 2.0 0.00 0.00 0.00 77 1012.7
20260503214052 60 273 0.0 1.0 0.00 0.00 0.00 75 1012.4
20260503213551 60 267 1.0 1.0 0.00 0.00 0.00 75 1012.4
20260503213047 60 248 2.0 2.0 0.00 0.00 0.00 73 1012.4
20260503212545 60 233 3.0 7.0 0.00 0.00 0.00 74 1012.5
20260503212042 60 279 1.0 1.0 0.00 0.00 0.00 74 1012.5
20260503211539 59 243 2.0 3.0 0.00 0.00 0.00 74 1012.4
20260503211034 60 278 3.0 5.0 0.00 0.00 0.00 75 1012.4
20260503210531 60 185 3.0 3.0 0.00 0.00 0.00 72 1012.5
20260503210027 61 282 1.0 1.0 0.00 0.00 0.00 71 1012.5
20260503205524 60 262 3.0 3.0 0.00 0.00 0.00 74 1012.5
20260503205020 60 205 2.0 2.0 0.00 0.00 0.00 73 1012.3
20260503204518 61 302 0.0 1.0 0.00 0.00 0.00 72 1012.2
20260503204014 60 209 3.0 3.0 0.00 0.00 0.00 71 1012.4
20260503203512 60 301 1.0 1.0 0.00 0.00 0.00 75 1012.5
20260503203009 60 224 3.0 3.0 0.00 0.00 0.00 72 1012.4
20260503202506 59 262 1.0 2.0 0.00 0.00 0.00 75 1012.6
20260503202004 60 317 0.0 1.0 0.00 0.00 0.00 75 1012.8
20260503201502 59 310 2.0 2.0 0.00 0.00 0.00 74 1012.7
20260503200959 59 278 1.0 1.0 0.00 0.00 0.00 74 1012.7
20260503200455 59 247 3.0 3.0 0.00 0.00 0.00 76 1012.7
20260503195952 59 310 0.0 1.0 0.00 0.00 0.00 77 1012.8
20260503195449 58 312 0.0 1.0 0.00 0.00 0.00 75 1012.9
20260503194946 58 306 3.0 3.0 0.00 0.00 0.00 76 1012.7
20260503194443 58 283 1.0 2.0 0.00 0.00 0.00 77 1012.8
20260503193938 58 275 1.0 2.0 0.00 0.00 0.00 76 1012.8
20260503193434 57 299 0.0 1.0 0.00 0.00 0.00 77 1013.1
20260503192930 57 257 2.0 3.0 0.00 0.00 0.00 78 1012.9
20260503192426 57 219 1.0 2.0 0.00 0.00 0.00 77 1012.8
20260503191922 57 305 0.0 1.0 0.00 0.00 0.00 78 1012.7
20260503191420 57 273 1.0 2.0 0.00 0.00 0.00 77 1012.8
20260503190916 57 309 1.0 2.0 0.00 0.00 0.00 76 1012.9
20260503190413 58 280 2.0 2.0 0.00 0.00 0.00 75 1012.8
20260503185910 57 269 1.0 1.0 0.00 0.00 0.00 78 1012.8
20260503185407 57 318 1.0 1.0 0.00 0.00 0.00 77 1012.6
20260503184906 57 307 0.0 0.0 0.00 0.00 0.00 78 1012.9
20260503184403 57 316 2.0 2.0 0.00 0.00 0.00 77 1012.7
20260503183859 57 231 5.0 6.0 0.00 0.00 0.00 77 1012.8
20260503183356 57 279 1.0 1.0 0.00 0.00 0.00 80 1012.8
20260503182853 56 255 2.0 2.0 0.00 0.00 0.00 81 1012.8
20260503182352 55 254 1.0 2.0 0.00 0.00 0.00 82 1012.7
20260503181848 55 272 1.0 2.0 0.00 0.00 0.00 83 1012.7
20260503181345 55 305 0.0 1.0 0.00 0.00 0.00 84 1012.6
20260503180842 55 232 1.0 2.0 0.00 0.00 0.00 83 1012.7
20260503180340 57 231 2.0 2.0 0.00 0.00 0.00 81 1013.0
20260503175836 57 275 1.0 1.0 0.00 0.00 0.00 79 1012.7
20260503175334 58 309 0.0 1.0 0.00 0.00 0.00 78 1012.7
20260503174829 56 290 0.0 0.0 0.00 0.00 0.00 84 1012.8
20260503174327 55 320 0.0 0.0 0.00 0.00 0.00 85 1012.6
20260503173822 54 308 1.0 1.0 0.00 0.00 0.00 87 1012.7
20260503173319 54 308 1.0 1.0 0.00 0.00 0.00 87 1012.6
20260503172816 54 280 1.0 1.0 0.00 0.00 0.00 88 1012.6
20260503172314 53 286 1.0 1.0 0.00 0.00 0.00 90 1012.5
20260503171809 53 319 0.0 0.0 0.00 0.00 0.00 90 1012.6
20260503171306 53 248 1.0 2.0 0.00 0.00 0.00 90 1012.6
20260503170803 53 293 0.0 0.0 0.00 0.00 0.00 91 1012.5
20260503170300 53 306 0.0 0.0 0.00 0.00 0.00 90 1012.6
20260503150652 51 274 2.0 2.0 0.00 0.00 0.00 94 1011.6
20260503150148 51 242 1.0 1.0 0.00 0.00 0.00 95 1011.8
20260503140113 50 278 0.0 0.0 0.00 0.00 0.00 99 1011.0
20260503131042 50 273 0.0 0.0 0.00 0.00 0.00 99 1010.3
20260503130539 50 277 0.0 0.0 0.00 0.00 0.00 99 1010.2
20260503110430 50 278 0.0 0.0 0.00 0.00 0.00 99 1010.1
20260503090321 51 279 0.0 0.0 0.00 0.00 0.00 99 1010.8
20260503081249 51 279 0.0 0.0 0.00 0.00 0.00 99 1011.1
20260503080745 51 279 0.0 0.0 0.00 0.00 0.00 99 1011.1
20260503080242 51 279 0.0 0.0 0.00 0.00 0.00 99 1011.2
20260503072718 51 283 0.0 0.0 0.00 0.00 0.00 98 1011.0
20260503072215 51 283 0.0 0.0 0.00 0.00 0.00 98 1011.1
20260503071712 51 283 0.0 1.0 0.00 0.00 0.00 98 1011.1
20260503071209 51 282 0.0 0.0 0.00 0.00 0.00 98 1011.2
20260503070705 51 282 0.0 0.0 0.00 0.00 0.00 98 1011.3
20260503070204 51 282 0.0 0.0 0.00 0.00 0.00 98 1011.2